Flag for Canada Weather past 2 weeks in Belleville, Ontario, Canada

Now
46 °F

Passing clouds.


Feels Like: 42 °F
Forecast: 39 / 57 °F
Wind: 8 mph from North

Location: Trenton

Current Time: Oct 22, 2014 at 9:51:27 PM

Latest Report: Oct 22, 2014 at 9:00 PM


Visibility: 15 mi

Pressure: 30.22 "Hg

Humidity: 93%

Dew point: 45 °F

Location of BellevilleLocation

Historic Weather in Belleville — Graph

°F

Belleville temperature yesterday

Maximum temperature yesterday: 52 °F (at 12:00 AM)
Minimum temperature yesterday: 45 °F (at 3:00 PM)
Average temperature yesterday: 48 °F

Past Weeks' High & Low Weather Summary

 TemperatureHumidityPressure
High79 °F (Oct 14, 2:00 PM)100% (Oct 8, 12:00 AM)30.31 "Hg (Oct 8, 12:00 AM)
Low32 °F (Oct 12, 7:00 AM)26% (Oct 22, 2:00 PM)29.45 "Hg (Oct 18, 4:00 AM)
Average52 °F85%29.92 "Hg
* Reported Oct 7 8:00 PM — Oct 22 8:00 PM, Belleville, Weather by CustomWeather, © 2014

Note: Actual official high and low records may vary slightly from our data, if they occured in-between our weather recording intervals... More about our weather records

Advertising

Belleville weather history for previous 24 hours

 ConditionsComfort  
Time TempWeatherWind HumidityBarometerVisibility
8:00 PM
Oct 22
48 °FPassing clouds.9 mph94%30.23 "Hg15 mi
7:00 PM50 °FOvercast.8 mph94%30.22 "Hg15 mi
6:00 PM50 °FBroken clouds.10 mph88%30.23 "Hg15 mi
5:00 PM52 °FBroken clouds.14 mph82%30.22 "Hg15 mi
4:00 PM54 °FBroken clouds.13 mph77%30.21 "Hg15 mi
3:00 PM54 °FPassing clouds.17 mph51%30.21 "Hg15 mi
2:00 PM52 °FBroken clouds.13 mph26%30.22 "Hg15 mi
1:00 PM52 °FPassing clouds.14 mph62%30.24 "Hg15 mi
12:00 PM50 °FScattered clouds.14 mph67%30.24 "Hg15 mi
11:00 AM46 °FPassing clouds.15 mph71%30.24 "Hg15 mi
10:00 AM45 °FBroken clouds.15 mph76%30.25 "Hg15 mi
9:00 AM43 °FBroken clouds.12 mph76%30.25 "Hg15 mi
8:00 AM43 °FPassing clouds.10 mph76%30.24 "Hg15 mi
7:00 AM43 °FPassing clouds.14 mph71%30.21 "Hg15 mi
6:00 AM45 °FPassing clouds.13 mph71%30.19 "Hg15 mi
5:00 AM45 °FPassing clouds.13 mph71%30.16 "Hg15 mi
4:00 AM45 °FPassing clouds.12 mph71%30.15 "Hg15 mi
3:00 AM45 °FOvercast.15 mph71%30.14 "Hg15 mi
2:52 AMN/AOvercast.14 mphN/AN/A15 mi
2:00 AM45 °FOvercast.14 mph71%30.14 "Hg15 mi
1:00 AM45 °FPassing clouds.14 mph76%30.14 "Hg15 mi
12:00 AM43 °FPassing clouds.12 mph81%30.14 "Hg15 mi
11:00 PM
Oct 21
45 °FPartly cloudy.16 mph76%30.13 "Hg15 mi
10:00 PM45 °FOvercast.15 mph76%30.12 "Hg15 mi
9:00 PM45 °FOvercast.14 mph81%30.11 "Hg15 mi
Weather by CustomWeather, © 2014

See weather overviewHow to use our weather pages